Location: Newark
(41.9000°N, 12.4833°E)
Time: 01:55:04
(UTC+00:00)

ISS - Visible Passes

Search period start: 26 March 2019 00:00
Search period end: 05 April 2019 00:00
Orbit: 408 x 411 km, 51.6° (Epoch: 26 March)

Date Brightness Start Highest point End Pass type
(mag) Time Alt. Az. Time Alt. Az. Time Alt. Az.
26 Mar -1.9 18:26:38 10° W 18:29:32 27° NNW 18:32:26 10° NE visible
26 Mar -0.7 20:04:53 10° NW 20:06:00 14° NNW 20:06:00 14° NNW visible
27 Mar -1.2 19:13:49 10° NW 19:15:59 16° N 19:17:28 13° NNE visible
28 Mar -1.4 18:22:36 10° WNW 18:25:02 19° NNW 18:27:29 10° NE visible
28 Mar -0.9 20:00:25 10° NNW 20:01:37 14° NNW 20:01:37 14° NNW visible
29 Mar -1.3 19:09:33 10° NW 19:11:35 15° N 19:12:58 12° NNE visible
30 Mar -1.2 18:18:30 10° NW 18:20:35 15° N 18:22:40 10° NE visible
30 Mar -1.2 19:55:32 10° NW 19:57:02 18° N 19:57:02 18° N visible
31 Mar -1.5 19:04:51 10° NNW 19:07:07 17° N 19:08:19 15° NE visible
01 Apr -1.3 18:14:03 10° NW 18:16:07 15° N 18:18:12 10° NE visible
01 Apr -1.7 19:50:28 10° NW 19:52:20 24° NNW 19:52:20 24° NNW visible
02 Apr -2.0 18:59:50 10° NW 19:02:33 23° NNE 19:03:36 20° NE visible
02 Apr -0.3 20:36:06 10° WNW 20:36:21 12° WNW 20:36:21 12° WNW visible
03 Apr -1.7 18:09:09 10° NW 18:11:34 18° NNE 18:13:59 10° ENE visible
03 Apr -2.5 19:45:22 10° NW 19:47:39 39° NNW 19:47:39 39° NNW visible
04 Apr -2.9 18:54:40 10° NW 18:57:48 38° NNE 18:58:57 28° ENE visible
04 Apr -0.5 20:31:26 10° WNW 20:31:42 12° WNW 20:31:42 12° WNW visible
